Starlink 30442

operational
NORAD ID: 57868 Int'l Des: 2023-144 Owner: SPXS Country: US Constellation: starlink
LEOCIRCULAR

About Starlink 30442

Description loading...

Live Position

Loading 3D Globe...

Upcoming Passes

Altitude History

Altitude vs Time

uPlot chart will show altitude changes over time

Two-Line Element Set

1 57868U 23144E 26035.22800340 -.00005030 00000-0 -35736-3 0 9990
2 57868 43.0013 109.5556 0001162 276.6948 83.3762 15.02558152132537
Epoch: Feb 4, 2026 • Age: 9 hours

Current Status

Altitude 566.8 km
Velocity 7.58 km/s
Sub-Earth Point -31.07°S, 70.25°E
Launch Date Sep 16, 2023
Age 2.3 years
Type internet

Technical Details

Classification Payload
Mass 730.00 kg
Dry Mass 700.00 kg
Total Mass 730.00 kg
Length 0.30 m
Diameter 4.10 m
Span 29.00 m
Shape Box + pan
Manufacturer SPXS
Bus Type Starlink V2M
Phase Status In Orbit
Owner/State SPXS/US

Large Constellations

Loading constellations...